Weather History for K1A5 - June, 2012

Change the Weather History Date:

Thursday, June 21, 2012

  Actual Average (KTOC) Record (KTOC)
Temperature  
Mean Temperature 73 °F -  
Max Temperature 86 °F 86 °F 93 °F (2014)
Min Temperature 60 °F 64 °F 70 °F (2014)
Cooling Degree Days 8    
Growing Degree Days 23 (Base 50)    
Moisture  
Dew Point 62 °F    
Average Humidity 81    
Maximum Humidity 100    
Minimum Humidity 35    
Precipitation  
Precipitation 0.00 in - - ()
Sea Level Pressure  
Sea Level Pressure 30.12 in    
Wind  
Wind Speed 1 mph (SSW)    
Max Wind Speed 9 mph    
Max Gust Speed 16 mph    
Visibility 6 miles    
Events Fog    
Averages and records for this station are not official NWS values.
T = Trace of Precipitation, MM = Missing Value Source: NWS Daily Summary

Daily Weather History Graph

Daily Weather History Graph

Search for Another Location

Airport or City:

Trip Planner

Search our weather history database for the weather conditions in past years. The results will help you decide how hot, cold, wet, or windy it might be!

Date:

Astronomy

Jun. 21, 2012 Rise Set
Actual Time 6:19 AM EDT 8:51 PM EDT
Civil Twilight 5:49 AM EDT 9:21 PM EDT
Nautical Twilight 5:12 AM EDT 9:58 PM EDT
Astronomical Twilight 4:31 AM EDT 10:39 PM EDT
Moon 8:12 AM EDT (6/21) 10:19 PM EDT (6/21)
Length of Visible Light 15h 31m
Length of Day
14h 32m
Waxing Crescent, 4% of the Moon is Illuminated
Jun 21
Waxing Crescent
Jun 26
First Quarter
Jul 3
Full
Jul 10
Last Quarter
Jul 19
New

Hourly Weather History & Observations

Time (EDT) Temp. Heat Index Dew Point Humidity Pressure Visibility Wind Dir Wind Speed Gust Speed Precip Events Conditions
12:15 AM 62.6 °F - 62.6 °F 100% 30.20 in 3.0 mi Calm Calm - N/A   Overcast
12:35 AM 62.6 °F - 62.6 °F 100% 30.20 in 0.2 mi Calm Calm - N/A Fog Fog
12:55 AM 62.6 °F - 60.8 °F 94% 30.19 in 1.8 mi Calm Calm - N/A   Overcast
1:15 AM 62.6 °F - 62.6 °F 100% 30.19 in 0.5 mi Calm Calm - N/A Fog Fog
1:35 AM 62.6 °F - 60.8 °F 94% 30.19 in 1.2 mi WSW 3.5 mph - N/A   Overcast
1:55 AM 62.6 °F - 60.8 °F 94% 30.19 in 1.2 mi WSW 3.5 mph - N/A   Overcast
2:15 AM 62.6 °F - 60.8 °F 94% 30.19 in 0.2 mi Calm Calm - N/A Fog Fog
2:35 AM 62.6 °F - 60.8 °F 94% 30.18 in 0.2 mi Calm Calm - N/A Fog Fog
2:55 AM 62.6 °F - 60.8 °F 94% 30.18 in 0.2 mi Calm Calm - N/A Fog Fog
3:15 AM 62.6 °F - 60.8 °F 94% 30.18 in 0.8 mi Calm Calm - N/A   Overcast
3:35 AM 62.6 °F - 60.8 °F 94% 30.18 in 1.0 mi Calm Calm - N/A   Overcast
3:55 AM 62.6 °F - 60.8 °F 94% 30.18 in 0.2 mi Calm Calm - N/A Fog Fog
4:15 AM 62.6 °F - 60.8 °F 94% 30.18 in 0.2 mi Calm Calm - N/A Fog Fog
4:35 AM 62.6 °F - 60.8 °F 94% 30.18 in 0.2 mi Calm Calm - N/A Fog Fog
4:55 AM 62.6 °F - 60.8 °F 94% 30.18 in 0.2 mi Calm Calm - N/A Fog Fog
5:15 AM 62.6 °F - 60.8 °F 94% 30.18 in 0.5 mi Calm Calm - N/A Fog Fog
5:35 AM 62.6 °F - 60.8 °F 94% 30.18 in 0.2 mi Calm Calm - N/A Fog Fog
5:55 AM 62.6 °F - 60.8 °F 94% 30.18 in 0.2 mi Calm Calm - N/A Fog Fog
6:15 AM 60.8 °F - 60.8 °F 100% 30.19 in 0.2 mi Calm Calm - N/A Fog Fog
6:35 AM 60.8 °F - 59.0 °F 94% 30.19 in 0.5 mi Calm Calm - N/A Fog Fog
6:55 AM 60.8 °F - 59.0 °F 94% 30.20 in 0.2 mi Calm Calm - N/A Fog Fog
7:15 AM 60.8 °F - 59.0 °F 94% 30.20 in 0.2 mi Calm Calm - N/A Fog Fog
7:35 AM 60.8 °F - 60.8 °F 100% 30.20 in 0.5 mi Calm Calm - N/A Fog Fog
7:55 AM 60.8 °F - 60.8 °F 100% 30.20 in 0.2 mi Calm Calm - N/A Fog Fog
8:15 AM 62.6 °F - 60.8 °F 94% 30.21 in 0.5 mi Calm Calm - N/A Fog Fog
8:35 AM 62.6 °F - 60.8 °F 94% 30.21 in 1.2 mi Calm Calm - N/A   Overcast
8:55 AM 62.6 °F - 60.8 °F 94% 30.21 in 2.5 mi Calm Calm - N/A   Overcast
9:15 AM 62.6 °F - 60.8 °F 94% 30.20 in 4.0 mi Calm Calm - N/A   Overcast
9:35 AM 62.6 °F - 60.8 °F 94% 30.20 in 7.0 mi Calm Calm - N/A   Overcast
9:55 AM 64.4 °F - 62.6 °F 94% 30.19 in 7.0 mi Calm Calm - N/A   Overcast
10:15 AM 64.4 °F - 64.4 °F 100% 30.18 in 10.0 mi Calm Calm - N/A   Overcast
10:35 AM 66.2 °F - 64.4 °F 94% 30.18 in 10.0 mi Calm Calm - N/A   Scattered Clouds
10:55 AM 68.0 °F - 68.0 °F 100% 30.17 in 10.0 mi Calm Calm - N/A   Clear
11:15 AM 73.4 °F - 66.2 °F 78% 30.16 in 10.0 mi Calm Calm - N/A   Clear
11:35 AM 73.4 °F - 64.4 °F 73% 30.15 in 10.0 mi Calm Calm - N/A   Clear
12:15 PM 78.8 °F - 62.6 °F 57% 30.13 in 10.0 mi Calm Calm - N/A   Clear
12:35 PM 80.6 °F 81.1 °F 59.0 °F 48% 30.13 in 10.0 mi Calm Calm - N/A   Clear
12:55 PM 82.4 °F 82.5 °F 59.0 °F 45% 30.12 in 10.0 mi ESE 3.5 mph - N/A   Clear
1:15 PM 82.4 °F 82.9 °F 60.8 °F 48% 30.12 in 10.0 mi SSE 3.5 mph - N/A   Clear
1:35 PM 82.4 °F 82.5 °F 59.0 °F 45% 30.11 in 10.0 mi SE 3.5 mph - N/A   Scattered Clouds
1:55 PM 82.4 °F 81.7 °F 55.4 °F 39% 30.10 in 10.0 mi SE 3.5 mph - N/A   Clear
2:15 PM 84.2 °F 83.0 °F 55.4 °F 37% 30.09 in 10.0 mi WSW 3.5 mph - N/A   Clear
2:35 PM 84.2 °F 83.5 °F 57.2 °F 40% 30.08 in 7.0 mi Calm Calm - N/A   Clear
2:55 PM 82.4 °F 82.5 °F 59.0 °F 45% 30.07 in 10.0 mi ESE 4.6 mph - N/A   Clear
3:15 PM 86.0 °F 85.4 °F 59.0 °F 40% 30.07 in 10.0 mi WSW 3.5 mph - N/A   Clear
3:35 PM 86.0 °F 84.5 °F 55.4 °F 35% 30.06 in 10.0 mi Calm Calm - N/A   Clear
3:55 PM 86.0 °F 84.5 °F 55.4 °F 35% 30.05 in 10.0 mi South 5.8 mph - N/A   Scattered Clouds
4:15 PM 86.0 °F 84.5 °F 55.4 °F 35% 30.04 in 10.0 mi SE 6.9 mph - N/A   Clear
4:35 PM 84.2 °F 84.4 °F 60.8 °F 45% 30.04 in 10.0 mi ESE 9.2 mph 16.1 mph N/A   Mostly Cloudy
4:55 PM 80.6 °F 81.5 °F 60.8 °F 51% 30.03 in 10.0 mi ESE 5.8 mph - N/A   Scattered Clouds
5:15 PM 78.8 °F - 60.8 °F 54% 30.04 in 10.0 mi WSW 5.8 mph - N/A   Mostly Cloudy
5:35 PM 73.4 °F - 62.6 °F 69% 30.04 in 10.0 mi WSW 4.6 mph - N/A   Overcast
5:55 PM 71.6 °F - 64.4 °F 78% 30.04 in 10.0 mi WSW 3.5 mph - N/A   Mostly Cloudy
6:15 PM 71.6 °F - 64.4 °F 78% 30.04 in 10.0 mi WSW 4.6 mph - N/A   Scattered Clouds
6:35 PM 71.6 °F - 64.4 °F 78% 30.04 in 10.0 mi Calm Calm - N/A   Mostly Cloudy
6:55 PM 73.4 °F - 64.4 °F 73% 30.03 in 10.0 mi Calm Calm - N/A   Mostly Cloudy
7:15 PM 73.4 °F - 64.4 °F 73% 30.03 in 10.0 mi Calm Calm - N/A   Mostly Cloudy
7:35 PM 73.4 °F - 64.4 °F 73% 30.04 in 10.0 mi WSW 4.6 mph - N/A   Mostly Cloudy
7:55 PM 71.6 °F - 66.2 °F 83% 30.04 in 10.0 mi West 5.8 mph - N/A   Overcast
8:15 PM 71.6 °F - 66.2 °F 83% 30.04 in 10.0 mi Calm Calm - N/A   Mostly Cloudy
8:35 PM 69.8 °F - 68.0 °F 94% 30.04 in 10.0 mi Calm Calm - N/A   Scattered Clouds
8:55 PM 69.8 °F - 68.0 °F 94% 30.04 in 10.0 mi Calm Calm - N/A   Scattered Clouds
9:15 PM 69.8 °F - 68.0 °F 94% 30.04 in 10.0 mi Calm Calm - N/A   Scattered Clouds
9:35 PM 68.0 °F - 68.0 °F 100% 30.04 in 10.0 mi Calm Calm - N/A   Clear
9:55 PM 68.0 °F - 68.0 °F 100% 30.05 in 10.0 mi Calm Calm - N/A   Scattered Clouds
10:15 PM 68.0 °F - 66.2 °F 94% 30.06 in 10.0 mi Calm Calm - N/A   Mostly Cloudy
10:35 PM 68.0 °F - 66.2 °F 94% 30.07 in 7.0 mi Calm Calm - N/A   Overcast
10:55 PM 68.0 °F - 66.2 °F 94% 30.08 in 10.0 mi Calm Calm - N/A   Overcast
11:15 PM 68.0 °F - 66.2 °F 94% 30.08 in 7.0 mi Calm Calm - N/A   Overcast
11:35 PM 68.0 °F - 66.2 °F 94% 30.08 in 7.0 mi Calm Calm - N/A   Mostly Cloudy
11:55 PM 68.0 °F - 66.2 °F 94% 30.07 in 7.0 mi Calm Calm - N/A   Mostly Cloudy